Погода в Зубареве

Россия / Ярославская область     58°29′20″N   38°58′31″E
темп.,
°C
ветер,
м/с
пор.,
м/с
влажн.,
%
обл.,
%
осадки,
мм/ч
давл.,
гПа
погр.,
м
11 апреля, вс
вс1100:00+4ю6167427 0.0 1021444
03:00+2юз5138271 0.0 1022375
06:00+1зюз3793100 0.0 1024183
09:00+3з249099 0.0 1027425
12:00+4зюз238015 0.0 1029398
15:00+5з127689 0.0 1030327
18:00+4ю1189100 0.0 103121
21:00+3ююв129410 0.0 103312
12 апреля, пн
пн1200:00+2ююв1197100 0.0 103410
03:00+4вюв2495100 0.1 103456
06:00+4вюв3894100 0.1 1035174
09:00+6ююв388757 0.1 1035249
12:00+10ю47725 0.0 1035562
15:00+12ююв46665 0.0 1034814
18:00+10юв4976100 0.0 1032416
21:00+8юв41285100 0.0 1032412
13 апреля, вт
вт1300:00+7юв41189100 0.0 1030433
03:00+6юв4994100 0.0 1029288
06:00+5юв3897100 0.0 1028221
09:00+8ююв3889100 0.0 1026275
12:00+11ю4774100 0.0 1025448
15:00+14ю496582 0.0 1024642
18:00+11ю3874100 0.0 1023168
21:00+9ююв3584100 0.0 102366
14 апреля, ср
ср1400:00+8ю3984100 0.0 1023149
03:00+6ю3585100 0.0 102269
06:00+6ююв2786100 0.0 1022110
09:00+10ю39705 0.0 1021262
12:00+14ю5105989 0.0 1020519
15:00+14ююз385886 0.0 1019607
18:00+13ю366346 0.0 1018134
21:00+9ю387497 0.0 1018110
15 апреля, чт
чт1500:00+7ссв2386100 0.0 101960
03:00+6ссв3696100 0.0 1019214
06:00+5св4893100 0.0 1020284
09:00+6св4686100 0.0 1020371
12:00+7св4783100 0.0 1020451
15:00+6св5883100 0.0 1020435
18:00+4св51189100 0.0 1021429
21:00+3ссв61396100 0.0 1022490